Reno, NV

7:13 PM PST on November 21, 2019 (GMT -0800)
Reno-Tahoe International

Weather History for KRNO - October, 2019

Change the Weather History Date:

Monday, October 21, 2019

  Actual Average Record
Temperature  
Mean Temperature 54 °F 52 °F  
Max Temperature 70 °F 67 °F 84 °F (2003)
Min Temperature 39 °F 37 °F 18 °F (1996)
Degree Days  
Heating Degree Days 10 13  
Month to date heating degree days 254 197  
Since 1 July heating degree days 373 287  
Cooling Degree Days 0 0  
Month to date cooling degree days 0 4  
Year to date cooling degree days 1107 838  
Growing Degree Days 4 (Base 50)    
Moisture  
Dew Point 30 °F    
Average Humidity 45    
Maximum Humidity 73    
Minimum Humidity 20    
Precipitation  
Precipitation 0.00 in 0.02 in 0.24 in (1941)
Month to date precipitation T 0.34  
Year to date precipitation 9.05 5.38  
Snow  
Snow 0.00 in 0.00 in T in (1961)
Month to date snowfall 0.0 0.1  
Since 1 July snowfall T 0.2  
Since 1 September snowfall T 0.2  
Snow Depth 0.00 in    
Sea Level Pressure  
Sea Level Pressure 30.27 in    
Wind  
Wind Speed 1 mph ()    
Max Wind Speed 10 mph    
Max Gust Speed 13 mph    
Visibility 10.0 miles    
Events      
T = Trace of Precipitation, MM = Missing Value Source: Averaged Metar Reports

Daily Weather History Graph

Daily Weather History Graph

Search for Another Location

Airport or City:

Astronomy

Oct. 21, 2019 Rise Set
Actual Time 7:15 AM PDT 6:11 PM PDT
Civil Twilight 6:47 AM PDT 6:38 PM PDT
Nautical Twilight 6:16 AM PDT 7:10 PM PDT
Astronomical Twilight 5:45 AM PDT 7:41 PM PDT
Moon No Moon Rise 2:36 PM PDT (10/21)
Length of Visible Light 11h 51m
Length of Day
10h 56m
Waning Gibbous, 47% of the Moon is Illuminated
Oct 21
Waning Gibbous
Oct 27
New
Nov 4
First Quarter
Nov 12
Full
Nov 19
Last Quarter

Hourly Weather History & Observations

Time (PDT) Temp. Windchill Dew Point Humidity Pressure Visibility Wind Dir Wind Speed Gust Speed Precip Events Conditions
12:55 AM 50.0 °F - 36.0 °F 59% 30.17 in 10.0 mi Calm Calm - N/A   Clear
1:55 AM 46.0 °F - 35.1 °F 66% 30.19 in 10.0 mi Calm Calm - N/A   Clear
2:55 AM 44.1 °F - 34.0 °F 68% 30.19 in 10.0 mi Calm Calm - N/A   Clear
3:55 AM 42.1 °F - 34.0 °F 73% 30.21 in 10.0 mi Calm Calm - N/A   Clear
4:55 AM 41.0 °F - 33.1 °F 73% 30.21 in 10.0 mi Calm Calm - N/A   Clear
5:55 AM 42.1 °F - 34.0 °F 73% 30.24 in 10.0 mi Calm Calm - N/A   Clear
6:55 AM 41.0 °F - 33.1 °F 73% 30.27 in 10.0 mi Calm Calm - N/A   Partly Cloudy
7:55 AM 41.0 °F 39.0 °F 33.1 °F 73% 30.29 in 10.0 mi South 3.5 mph - N/A   Partly Cloudy
8:55 AM 46.0 °F 44.8 °F 35.1 °F 66% 30.32 in 10.0 mi SE 3.5 mph - N/A   Partly Cloudy
9:55 AM 52.0 °F - 35.1 °F 53% 30.30 in 10.0 mi Calm Calm - N/A   Partly Cloudy
10:55 AM 57.0 °F - 32.0 °F 39% 30.30 in 10.0 mi Calm Calm - N/A   Partly Cloudy
11:55 AM 62.1 °F - 28.9 °F 29% 30.28 in 10.0 mi Calm Calm - N/A   Partly Cloudy
12:55 PM 64.9 °F - 25.0 °F 22% 30.27 in 10.0 mi Calm Calm - N/A   Clear
1:55 PM 66.0 °F - 28.0 °F 24% 30.26 in 10.0 mi SSW 3.5 mph - N/A   Partly Cloudy
2:55 PM 69.1 °F - 28.9 °F 22% 30.25 in 10.0 mi West 3.5 mph - N/A   Partly Cloudy
3:55 PM 68.0 °F - 28.0 °F 22% 30.26 in 10.0 mi SSE 3.5 mph - N/A   Partly Cloudy
4:55 PM 69.1 °F - 26.1 °F 20% 30.26 in 10.0 mi ESE 4.6 mph - N/A   Partly Cloudy
5:55 PM 66.9 °F - 26.1 °F 21% 30.26 in 10.0 mi East 3.5 mph - N/A   Partly Cloudy
6:55 PM 63.0 °F - 28.0 °F 27% 30.29 in 10.0 mi Variable 5.8 mph - N/A   Partly Cloudy
7:55 PM 59.0 °F - 28.0 °F 31% 30.33 in 10.0 mi Calm Calm - N/A   Clear
8:55 PM 55.9 °F - 28.0 °F 34% 30.34 in 10.0 mi Calm Calm - N/A   Clear
9:55 PM 54.0 °F - 27.0 °F 35% 30.34 in 10.0 mi West 4.6 mph - N/A   Clear
10:55 PM 51.1 °F - 27.0 °F 39% 30.34 in 10.0 mi Calm Calm - N/A   Clear
11:55 PM 46.9 °F - 28.0 °F 48% 30.34 in 10.0 mi South 4.6 mph - N/A   Clear